Flag for Ukraine Weather past 2 weeks in Odesa, Ukraine

Now
75 °F

Passing clouds.


Feels Like: 77 °F
Forecast: 68 / 83 °F
Wind: 8 mph from Southwest

Location: Odesa Airport

Current Time: Jul 12, 2014 at 9:15:46 AM

Latest Report: Jul 12, 2014 at 8:30 AM


Visibility: N/A

Pressure: 29.68 "Hg

Humidity: 65%

Dew point: 63 °F

Location of OdesaLocation

Historic Weather in Odesa — Graph

°F

Odesa temperature yesterday

Maximum temperature yesterday: 81 °F (at 1:00 PM)
Minimum temperature yesterday: 68 °F (at 12:30 AM)
Average temperature yesterday: 74 °F

Past Weeks' High & Low Weather Summary

 TemperatureHumidityPressure
High86 °F (Jul 6, 1:00 PM)100% (Jul 10, 2:00 AM)30.15 "Hg (Jul 10, 2:00 AM)
Low54 °F (Jun 28, 4:30 AM)25% (Jul 2, 5:00 PM)29.62 "Hg (Jul 11, 5:30 PM)
Average72 °F60%29.97 "Hg
* Reported Jun 27 8:00 AM — Jul 12 8:00 AM, Odesa, Weather by CustomWeather, © 2014

Note: Actual official high and low records may vary slightly from our data, if they occured in-between our weather recording intervals... More about our weather records

Advertising

Odesa weather history for previous 24 hours

 ConditionsComfort  
Time TempWeatherWind HumidityBarometerVisibility
8:00 AM
Jul 12
75 °FPassing clouds.6 mph69%29.65 "HgN/A
7:30 AM73 °FPassing clouds.6 mph89%29.65 "HgN/A
7:00 AM72 °FSunny.No wind94%29.65 "Hg10 mi
6:30 AM70 °FScattered clouds.No wind88%29.65 "HgN/A
5:30 AM70 °FPassing clouds.1 mph94%29.65 "HgN/A
5:00 AM72 °FThundershowers. Mostly cloudy.8 mph100%29.62 "HgN/A
4:30 AM73 °FThunderstorms. Passing clouds.10 mph94%29.62 "HgN/A
4:00 AM73 °FThunderstorms. Partly cloudy.10 mph94%29.62 "HgN/A
3:30 AM73 °FThunderstorms. Partly cloudy.8 mph94%29.62 "HgN/A
3:00 AM73 °FPassing clouds.8 mph89%29.62 "HgN/A
2:30 AM73 °FPassing clouds.10 mph89%29.62 "HgN/A
2:00 AM73 °FPassing clouds.10 mph94%29.62 "HgN/A
1:30 AM73 °FPartly cloudy.10 mph89%29.65 "HgN/A
1:00 AM73 °FPassing clouds.10 mph94%29.62 "HgN/A
12:30 AM73 °FPartly cloudy.8 mph94%29.65 "HgN/A
12:00 AM73 °FPartly cloudy.10 mph89%29.65 "HgN/A
11:30 PM
Jul 11
73 °FPartly cloudy.10 mph89%29.65 "HgN/A
11:00 PM73 °FPassing clouds.8 mph94%29.65 "HgN/A
10:30 PM73 °FPassing clouds.10 mph89%29.65 "HgN/A
10:00 PM73 °FPassing clouds.8 mph89%29.65 "HgN/A
9:30 PM73 °FBroken clouds.8 mph89%29.65 "HgN/A
9:00 PM73 °FBroken clouds.10 mph89%29.65 "HgN/A
8:30 PM73 °FBroken clouds.10 mph89%29.65 "HgN/A
8:00 PM75 °FBroken clouds.15 mph83%29.62 "HgN/A
7:30 PM75 °FBroken clouds.15 mph83%29.62 "HgN/A
7:00 PM75 °FBroken clouds.17 mph83%29.62 "HgN/A
6:30 PM77 °FPartly sunny.17 mph79%29.62 "HgN/A
6:00 PM77 °FPartly sunny.17 mph79%29.62 "HgN/A
5:30 PM77 °FPartly sunny.15 mph74%29.62 "HgN/A
5:00 PM79 °FPartly sunny.17 mph70%29.65 "HgN/A
4:30 PM79 °FPartly sunny.17 mph70%29.65 "HgN/A
4:00 PM79 °FPartly sunny.17 mph70%29.65 "HgN/A
3:30 PM79 °FScattered clouds.17 mph65%29.65 "HgN/A
3:00 PM81 °FPassing clouds.20 mph62%29.68 "HgN/A
2:30 PM79 °FScattered clouds.20 mph65%29.68 "HgN/A
2:00 PM79 °FScattered clouds.20 mph65%29.68 "HgN/A
1:30 PM79 °FScattered clouds.17 mph65%29.68 "HgN/A
1:00 PM81 °FScattered clouds.15 mph66%29.68 "HgN/A
12:30 PM79 °FScattered clouds.15 mph65%29.68 "HgN/A
12:00 PM79 °FPartly sunny.15 mph65%29.71 "HgN/A
11:30 AM79 °FScattered clouds.15 mph65%29.71 "HgN/A
11:00 AM77 °FScattered clouds.15 mph74%29.71 "HgN/A
10:30 AM77 °FPartly sunny.13 mph74%29.71 "HgN/A
10:00 AM77 °FScattered clouds.13 mph69%29.71 "HgN/A
9:30 AM77 °FBroken clouds.13 mph74%29.71 "HgN/A
9:00 AM77 °FScattered clouds.10 mph69%29.71 "HgN/A
Weather by CustomWeather, © 2014

See weather overviewHow to use our weather pages